| time (UTC) | temp F | wind direction | speed MPH | gust MPH | rain 1hr in | rain 24hr in | rain mn in | humidity % | barometer mb |
| 20260509232031 | 44 | 0 | 0.0 | 0.0 | 0.00 | 0.00 | 0.00 | 79 | 1025.4 |
| 20260509231550 | 44 | 0 | 0.0 | 0.0 | 0.00 | 0.00 | 0.00 | 79 | 1025.6 |
| 20260509231033 | 44 | 0 | 0.0 | 0.0 | 0.00 | 0.00 | 0.00 | 79 | 1025.5 |
| 20260509230530 | 44 | 0 | 0.0 | 0.0 | 0.00 | 0.00 | 0.00 | 79 | 1025.5 |
| 20260509230044 | 44 | 0 | 0.0 | 0.0 | 0.00 | 0.00 | 0.00 | 79 | 1025.5 |
| 20260509225534 | 44 | 0 | 0.0 | 2.0 | 0.00 | 0.00 | 0.00 | 79 | 1025.6 |
| 20260509225031 | 45 | 314 | 0.0 | 2.0 | 0.00 | 0.00 | 0.00 | 78 | 1025.5 |
| 20260509224541 | 45 | 342 | 0.0 | 1.0 | 0.00 | 0.00 | 0.00 | 78 | 1025.6 |
| 20260509224033 | 45 | 0 | 0.0 | 1.0 | 0.00 | 0.00 | 0.00 | 78 | 1025.6 |
| 20260509223531 | 45 | 0 | 0.0 | 1.0 | 0.00 | 0.00 | 0.00 | 78 | 1025.5 |
| 20260509223049 | 45 | 0 | 0.0 | 2.0 | 0.00 | 0.00 | 0.00 | 78 | 1025.6 |
| 20260509222535 | 45 | 0 | 0.0 | 2.0 | 0.00 | 0.00 | 0.00 | 78 | 1025.6 |
| 20260509222035 | 45 | 9 | 0.0 | 2.0 | 0.00 | 0.00 | 0.00 | 77 | 1025.5 |
| 20260509221545 | 45 | 0 | 0.0 | 2.0 | 0.00 | 0.00 | 0.00 | 77 | 1025.5 |
| 20260509221031 | 45 | 0 | 0.0 | 5.0 | 0.00 | 0.00 | 0.00 | 77 | 1025.6 |
| 20260509220530 | 45 | 65 | 1.0 | 5.0 | 0.00 | 0.00 | 0.00 | 77 | 1025.7 |
| 20260509220045 | 45 | 56 | 2.0 | 5.0 | 0.00 | 0.00 | 0.00 | 77 | 1025.7 |
| 20260509215533 | 45 | 80 | 2.0 | 7.0 | 0.00 | 0.00 | 0.00 | 77 | 1025.8 |
| 20260509215032 | 45 | 81 | 3.0 | 7.0 | 0.00 | 0.00 | 0.00 | 77 | 1025.8 |
| 20260509214542 | 45 | 72 | 4.0 | 7.0 | 0.00 | 0.00 | 0.00 | 77 | 1025.9 |
| 20260509214031 | 45 | 86 | 3.0 | 7.0 | 0.00 | 0.00 | 0.00 | 77 | 1025.8 |
| 20260509213531 | 45 | 66 | 3.0 | 7.0 | 0.00 | 0.00 | 0.00 | 77 | 1025.8 |
| 20260509213050 | 45 | 115 | 2.0 | 6.0 | 0.00 | 0.00 | 0.00 | 77 | 1025.8 |
| 20260509212533 | 46 | 39 | 1.0 | 5.0 | 0.00 | 0.00 | 0.00 | 76 | 1025.9 |
| 20260509212033 | 46 | 15 | 1.0 | 5.0 | 0.00 | 0.00 | 0.00 | 76 | 1025.7 |
| 20260509211548 | 46 | 78 | 1.0 | 5.0 | 0.00 | 0.00 | 0.00 | 76 | 1025.9 |
| 20260509211031 | 46 | 21 | 1.0 | 4.0 | 0.00 | 0.00 | 0.00 | 76 | 1025.9 |
| 20260509210534 | 46 | 0 | 0.0 | 4.0 | 0.00 | 0.00 | 0.00 | 77 | 1025.8 |
| 20260509210053 | 46 | 4 | 0.0 | 2.0 | 0.00 | 0.00 | 0.00 | 76 | 1025.8 |
| 20260509205531 | 46 | 0 | 1.0 | 4.0 | 0.00 | 0.00 | 0.00 | 75 | 1025.8 |
| 20260509205033 | 46 | 0 | 0.0 | 5.0 | 0.00 | 0.00 | 0.00 | 73 | 1025.7 |
| 20260509204542 | 47 | 321 | 1.0 | 5.0 | 0.00 | 0.00 | 0.00 | 73 | 1025.6 |
| 20260509204031 | 47 | 330 | 1.0 | 5.0 | 0.00 | 0.00 | 0.00 | 71 | 1025.6 |
| 20260509203531 | 47 | 347 | 1.0 | 5.0 | 0.00 | 0.00 | 0.00 | 69 | 1025.5 |
| 20260509203040 | 48 | 37 | 2.0 | 5.0 | 0.00 | 0.00 | 0.00 | 67 | 1025.5 |
| 20260509202534 | 48 | 104 | 2.0 | 8.0 | 0.00 | 0.00 | 0.00 | 65 | 1025.2 |
| 20260509202031 | 48 | 46 | 3.0 | 8.0 | 0.00 | 0.00 | 0.00 | 65 | 1025.2 |
| 20260509201538 | 48 | 6 | 2.0 | 9.0 | 0.00 | 0.00 | 0.00 | 65 | 1025.1 |
| 20260509201031 | 48 | 134 | 2.0 | 9.0 | 0.00 | 0.00 | 0.00 | 65 | 1024.9 |
| 20260509200532 | 49 | 77 | 1.0 | 11.0 | 0.00 | 0.00 | 0.00 | 66 | 1024.8 |
| 20260509200048 | 48 | 62 | 5.0 | 11.0 | 0.00 | 0.00 | 0.00 | 66 | 1024.7 |
| 20260509195534 | 49 | 77 | 5.0 | 9.0 | 0.00 | 0.00 | 0.00 | 65 | 1024.6 |
| 20260509195031 | 49 | 81 | 4.0 | 10.0 | 0.00 | 0.00 | 0.00 | 65 | 1024.5 |
| 20260509194543 | 49 | 78 | 5.0 | 11.0 | 0.00 | 0.00 | 0.00 | 65 | 1024.5 |
| 20260509194031 | 49 | 82 | 4.0 | 11.0 | 0.00 | 0.00 | 0.00 | 64 | 1024.4 |
| 20260509193530 | 49 | 81 | 5.0 | 11.0 | 0.00 | 0.00 | 0.00 | 64 | 1024.5 |
| 20260509193043 | 49 | 47 | 5.0 | 10.0 | 0.00 | 0.00 | 0.00 | 64 | 1024.4 |
| 20260509192530 | 50 | 57 | 4.0 | 11.0 | 0.00 | 0.00 | 0.00 | 64 | 1024.3 |
| 20260509192030 | 50 | 63 | 5.0 | 11.0 | 0.00 | 0.00 | 0.00 | 64 | 1024.2 |
| 20260509191542 | 50 | 79 | 5.0 | 11.0 | 0.00 | 0.00 | 0.00 | 64 | 1024.3 |
| 20260509191033 | 50 | 77 | 5.0 | 11.0 | 0.00 | 0.00 | 0.00 | 64 | 1024.1 |
| 20260509190536 | 50 | 82 | 3.0 | 12.0 | 0.00 | 0.00 | 0.00 | 64 | 1024.2 |
| 20260509190046 | 50 | 79 | 6.0 | 12.0 | 0.00 | 0.00 | 0.00 | 64 | 1024.2 |
| 20260509185534 | 50 | 51 | 3.0 | 7.0 | 0.00 | 0.00 | 0.00 | 65 | 1024.1 |
| 20260509185031 | 50 | 77 | 4.0 | 10.0 | 0.00 | 0.00 | 0.00 | 64 | 1024.1 |
| 20260509184544 | 50 | 91 | 3.0 | 10.0 | 0.00 | 0.00 | 0.00 | 64 | 1024.1 |
| 20260509184030 | 51 | 88 | 6.0 | 9.0 | 0.00 | 0.00 | 0.00 | 63 | 1024.0 |
| 20260509183531 | 51 | 61 | 3.0 | 9.0 | 0.00 | 0.00 | 0.00 | 63 | 1023.9 |
| 20260509183043 | 51 | 70 | 5.0 | 9.0 | 0.00 | 0.00 | 0.00 | 62 | 1023.8 |
| 20260509182530 | 51 | 65 | 5.0 | 9.0 | 0.00 | 0.00 | 0.00 | 62 | 1023.7 |
| 20260509182030 | 51 | 75 | 4.0 | 9.0 | 0.00 | 0.00 | 0.00 | 62 | 1023.7 |
| 20260509181543 | 52 | 82 | 5.0 | 11.0 | 0.00 | 0.00 | 0.00 | 62 | 1023.7 |
| 20260509181031 | 52 | 93 | 6.0 | 11.0 | 0.00 | 0.00 | 0.00 | 61 | 1023.6 |
| 20260509180531 | 52 | 50 | 3.0 | 9.0 | 0.00 | 0.00 | 0.00 | 61 | 1023.7 |
| 20260509180043 | 52 | 49 | 4.0 | 9.0 | 0.00 | 0.00 | 0.00 | 60 | 1023.6 |
| 20260509175530 | 53 | 112 | 1.0 | 6.0 | 0.00 | 0.00 | 0.00 | 60 | 1023.5 |
| 20260509175030 | 53 | 70 | 1.0 | 6.0 | 0.00 | 0.00 | 0.00 | 60 | 1023.4 |
| 20260509174541 | 53 | 108 | 3.0 | 6.0 | 0.00 | 0.00 | 0.00 | 59 | 1023.5 |
| 20260509174030 | 53 | 120 | 3.0 | 7.0 | 0.00 | 0.00 | 0.00 | 60 | 1023.6 |
| 20260509173531 | 53 | 79 | 2.0 | 8.0 | 0.00 | 0.00 | 0.00 | 61 | 1023.5 |
| 20260509173100 | 53 | 68 | 4.0 | 8.0 | 0.00 | 0.00 | 0.00 | 60 | 1023.5 |
| 20260509172531 | 53 | 77 | 2.0 | 5.0 | 0.00 | 0.00 | 0.00 | 61 | 1023.5 |
| 20260509172032 | 53 | 65 | 2.0 | 6.0 | 0.00 | 0.00 | 0.00 | 61 | 1023.5 |
| 20260509171546 | 53 | 63 | 3.0 | 6.0 | 0.00 | 0.00 | 0.00 | 61 | 1023.4 |
| 20260509171030 | 52 | 134 | 3.0 | 7.0 | 0.00 | 0.00 | 0.00 | 62 | 1023.5 |
| 20260509170531 | 52 | 110 | 4.0 | 8.0 | 0.00 | 0.00 | 0.00 | 61 | 1023.4 |
| 20260509170053 | 52 | 8 | 1.0 | 8.0 | 0.00 | 0.00 | 0.00 | 63 | 1023.4 |
| 20260509165531 | 52 | 115 | 4.0 | 8.0 | 0.00 | 0.00 | 0.00 | 63 | 1023.4 |
| 20260509165030 | 52 | 89 | 4.0 | 7.0 | 0.00 | 0.00 | 0.00 | 64 | 1023.4 |
| 20260509164542 | 52 | 129 | 3.0 | 7.0 | 0.00 | 0.00 | 0.00 | 64 | 1023.5 |
| 20260509164031 | 52 | 132 | 3.0 | 7.0 | 0.00 | 0.00 | 0.00 | 65 | 1023.4 |
| 20260509163531 | 52 | 60 | 3.0 | 6.0 | 0.00 | 0.00 | 0.00 | 64 | 1023.4 |
| 20260509163037 | 52 | 99 | 2.0 | 8.0 | 0.00 | 0.00 | 0.00 | 66 | 1023.5 |
| 20260509162534 | 52 | 65 | 3.0 | 8.0 | 0.00 | 0.00 | 0.00 | 66 | 1023.4 |
| 20260509162031 | 52 | 44 | 4.0 | 8.0 | 0.00 | 0.00 | 0.00 | 65 | 1023.3 |
| 20260509161540 | 53 | 49 | 5.0 | 8.0 | 0.00 | 0.00 | 0.00 | 66 | 1023.3 |
| 20260509161031 | 53 | 76 | 2.0 | 8.0 | 0.00 | 0.00 | 0.00 | 65 | 1023.3 |
| 20260509160531 | 52 | 68 | 1.0 | 8.0 | 0.00 | 0.00 | 0.00 | 65 | 1023.3 |
| 20260509160036 | 52 | 152 | 3.0 | 8.0 | 0.00 | 0.00 | 0.00 | 65 | 1023.2 |
| 20260509155530 | 52 | 71 | 3.0 | 7.0 | 0.00 | 0.00 | 0.00 | 64 | 1023.1 |
| 20260509155030 | 52 | 91 | 3.0 | 6.0 | 0.00 | 0.00 | 0.00 | 65 | 1023.2 |
| 20260509154546 | 51 | 98 | 1.0 | 9.0 | 0.00 | 0.00 | 0.00 | 65 | 1023.3 |
| 20260509154031 | 51 | 77 | 3.0 | 9.0 | 0.00 | 0.00 | 0.00 | 66 | 1023.3 |
| 20260509153530 | 51 | 94 | 4.0 | 9.0 | 0.00 | 0.00 | 0.00 | 66 | 1023.4 |
| 20260509153042 | 51 | 105 | 4.0 | 9.0 | 0.00 | 0.00 | 0.00 | 67 | 1023.3 |
| 20260509152530 | 51 | 89 | 5.0 | 10.0 | 0.00 | 0.00 | 0.00 | 68 | 1023.4 |
| 20260509152031 | 51 | 96 | 5.0 | 10.0 | 0.00 | 0.00 | 0.00 | 69 | 1023.3 |
| 20260509151553 | 51 | 84 | 4.0 | 9.0 | 0.00 | 0.00 | 0.00 | 70 | 1023.4 |
| 20260509151032 | 51 | 84 | 5.0 | 9.0 | 0.00 | 0.00 | 0.00 | 70 | 1023.2 |
| 20260509150531 | 51 | 110 | 4.0 | 10.0 | 0.00 | 0.00 | 0.00 | 71 | 1023.4 |
| 20260509150043 | 51 | 91 | 5.0 | 10.0 | 0.00 | 0.00 | 0.00 | 71 | 1023.3 |
| 20260509145530 | 51 | 67 | 6.0 | 10.0 | 0.00 | 0.00 | 0.00 | 70 | 1023.5 |
| 20260509145031 | 51 | 61 | 6.0 | 11.0 | 0.00 | 0.00 | 0.00 | 70 | 1023.6 |
| 20260509144541 | 51 | 84 | 5.0 | 11.0 | 0.00 | 0.00 | 0.00 | 70 | 1023.5 |
| 20260509144030 | 51 | 72 | 7.0 | 11.0 | 0.00 | 0.00 | 0.00 | 70 | 1023.6 |
| 20260509143531 | 51 | 63 | 3.0 | 10.0 | 0.00 | 0.00 | 0.00 | 71 | 1023.5 |
| 20260509143053 | 51 | 214 | 3.0 | 10.0 | 0.00 | 0.00 | 0.00 | 72 | 1023.7 |
| 20260509142531 | 51 | 81 | 4.0 | 9.0 | 0.00 | 0.00 | 0.00 | 71 | 1023.8 |
| 20260509142032 | 51 | 319 | 3.0 | 9.0 | 0.00 | 0.00 | 0.00 | 74 | 1023.7 |
| 20260509141548 | 51 | 79 | 4.0 | 9.0 | 0.00 | 0.00 | 0.00 | 73 | 1023.7 |
| 20260509141034 | 51 | 86 | 3.0 | 9.0 | 0.00 | 0.00 | 0.00 | 72 | 1023.6 |
| 20260509140530 | 50 | 349 | 2.0 | 7.0 | 0.00 | 0.00 | 0.00 | 72 | 1023.7 |
| 20260509140042 | 50 | 324 | 3.0 | 9.0 | 0.00 | 0.00 | 0.00 | 71 | 1023.7 |
| 20260509135532 | 50 | 357 | 2.0 | 9.0 | 0.00 | 0.00 | 0.00 | 70 | 1023.7 |
| 20260509135029 | 51 | 84 | 3.0 | 9.0 | 0.00 | 0.00 | 0.00 | 66 | 1023.7 |
| 20260509134540 | 52 | 345 | 3.0 | 9.0 | 0.00 | 0.00 | 0.00 | 64 | 1023.7 |
| 20260509134029 | 52 | 79 | 2.0 | 9.0 | 0.00 | 0.00 | 0.00 | 64 | 1023.7 |
| 20260509133532 | 52 | 62 | 3.0 | 9.0 | 0.00 | 0.00 | 0.00 | 63 | 1023.6 |
| 20260509133036 | 52 | 112 | 3.0 | 8.0 | 0.00 | 0.00 | 0.00 | 64 | 1023.5 |
| 20260509132531 | 52 | 342 | 3.0 | 8.0 | 0.00 | 0.00 | 0.00 | 64 | 1023.5 |
| 20260509132030 | 52 | 72 | 4.0 | 8.0 | 0.00 | 0.00 | 0.00 | 64 | 1023.6 |
| 20260509131555 | 52 | 77 | 3.0 | 9.0 | 0.00 | 0.00 | 0.00 | 64 | 1023.5 |
| 20260509131030 | 52 | 113 | 3.0 | 9.0 | 0.00 | 0.00 | 0.00 | 63 | 1023.6 |
| 20260509130530 | 52 | 80 | 4.0 | 8.0 | 0.00 | 0.00 | 0.00 | 65 | 1023.6 |
| 20260509130105 | 52 | 75 | 3.0 | 9.0 | 0.00 | 0.00 | 0.00 | 64 | 1023.5 |
| 20260509125533 | 52 | 92 | 3.0 | 13.0 | 0.00 | 0.00 | 0.00 | 66 | 1023.5 |
| 20260509125030 | 52 | 96 | 4.0 | 13.0 | 0.00 | 0.00 | 0.00 | 65 | 1023.5 |
| 20260509124543 | 51 | 46 | 5.0 | 13.0 | 0.00 | 0.00 | 0.00 | 65 | 1023.6 |
| 20260509124031 | 51 | 64 | 6.0 | 10.0 | 0.00 | 0.00 | 0.00 | 65 | 1023.6 |
| 20260509123531 | 51 | 68 | 3.0 | 10.0 | 0.00 | 0.00 | 0.00 | 66 | 1023.6 |
| 20260509123107 | 51 | 136 | 5.0 | 10.0 | 0.00 | 0.00 | 0.00 | 65 | 1023.6 |
| 20260509122530 | 51 | 129 | 4.0 | 10.0 | 0.00 | 0.00 | 0.00 | 66 | 1023.7 |
| 20260509122030 | 51 | 72 | 5.0 | 15.0 | 0.00 | 0.00 | 0.00 | 65 | 1023.6 |
| 20260509121536 | 51 | 58 | 5.0 | 15.0 | 0.00 | 0.00 | 0.00 | 66 | 1023.6 |
| 20260509121033 | 51 | 37 | 6.0 | 15.0 | 0.00 | 0.00 | 0.00 | 65 | 1023.6 |
| 20260509120530 | 51 | 77 | 6.0 | 11.0 | 0.00 | 0.00 | 0.00 | 65 | 1023.6 |
| 20260509120049 | 52 | 139 | 4.0 | 9.0 | 0.00 | 0.00 | 0.00 | 64 | 1023.6 |
| 20260509115530 | 52 | 92 | 4.0 | 9.0 | 0.00 | 0.00 | 0.00 | 64 | 1023.7 |
| 20260509115030 | 52 | 105 | 4.0 | 11.0 | 0.00 | 0.00 | 0.00 | 64 | 1023.8 |
| 20260509114606 | 52 | 86 | 5.0 | 11.0 | 0.00 | 0.00 | 0.00 | 64 | 1023.7 |
| 20260509114031 | 51 | 82 | 5.0 | 11.0 | 0.00 | 0.00 | 0.00 | 64 | 1023.7 |
| 20260509113531 | 52 | 78 | 5.0 | 9.0 | 0.00 | 0.00 | 0.00 | 64 | 1023.7 |
| 20260509113039 | 52 | 93 | 4.0 | 13.0 | 0.00 | 0.00 | 0.00 | 65 | 1023.7 |
| 20260509112531 | 51 | 109 | 5.0 | 13.0 | 0.00 | 0.00 | 0.00 | 65 | 1023.8 |
| 20260509112031 | 51 | 46 | 5.0 | 10.0 | 0.00 | 0.00 | 0.00 | 66 | 1023.8 |
| 20260509111547 | 51 | 77 | 4.0 | 10.0 | 0.00 | 0.00 | 0.00 | 65 | 1023.8 |
| 20260509111031 | 51 | 73 | 4.0 | 8.0 | 0.00 | 0.00 | 0.00 | 65 | 1023.7 |
| 20260509110531 | 51 | 67 | 3.0 | 8.0 | 0.00 | 0.00 | 0.00 | 65 | 1023.8 |
| 20260509110053 | 51 | 89 | 3.0 | 8.0 | 0.00 | 0.00 | 0.00 | 66 | 1023.8 |
| 20260509105531 | 51 | 91 | 4.0 | 11.0 | 0.00 | 0.00 | 0.00 | 66 | 1023.9 |
| 20260509105031 | 51 | 81 | 4.0 | 11.0 | 0.00 | 0.00 | 0.00 | 66 | 1023.8 |
| 20260509104536 | 51 | 78 | 1.0 | 9.0 | 0.00 | 0.00 | 0.00 | 66 | 1023.8 |
| 20260509104030 | 50 | 101 | 4.0 | 9.0 | 0.00 | 0.00 | 0.00 | 66 | 1023.9 |
| 20260509103530 | 51 | 61 | 4.0 | 9.0 | 0.00 | 0.00 | 0.00 | 66 | 1023.9 |
| 20260509103047 | 50 | 110 | 4.0 | 7.0 | 0.00 | 0.00 | 0.00 | 67 | 1023.8 |
| 20260509102530 | 50 | 64 | 1.0 | 8.0 | 0.00 | 0.00 | 0.00 | 68 | 1023.8 |
| 20260509102031 | 50 | 68 | 3.0 | 8.0 | 0.00 | 0.00 | 0.00 | 67 | 1023.7 |
| 20260509101556 | 50 | 51 | 2.0 | 8.0 | 0.00 | 0.00 | 0.00 | 67 | 1023.7 |
| 20260509101032 | 50 | 77 | 4.0 | 8.0 | 0.00 | 0.00 | 0.00 | 67 | 1023.7 |
| 20260509100531 | 50 | 70 | 3.0 | 8.0 | 0.00 | 0.00 | 0.00 | 67 | 1023.8 |
| 20260509100038 | 50 | 65 | 4.0 | 9.0 | 0.00 | 0.00 | 0.00 | 68 | 1023.7 |
| 20260509095531 | 50 | 65 | 4.0 | 10.0 | 0.00 | 0.00 | 0.00 | 67 | 1023.6 |
| 20260509095031 | 50 | 58 | 5.0 | 10.0 | 0.00 | 0.00 | 0.00 | 68 | 1023.7 |
| 20260509094536 | 50 | 114 | 4.0 | 10.0 | 0.00 | 0.00 | 0.00 | 68 | 1023.5 |
| 20260509094033 | 50 | 127 | 4.0 | 10.0 | 0.00 | 0.00 | 0.00 | 68 | 1023.5 |
| 20260509093531 | 50 | 36 | 3.0 | 9.0 | 0.00 | 0.00 | 0.00 | 67 | 1023.6 |
| 20260509093037 | 50 | 76 | 3.0 | 9.0 | 0.00 | 0.00 | 0.00 | 67 | 1023.6 |
| 20260509092530 | 50 | 74 | 4.0 | 9.0 | 0.00 | 0.00 | 0.00 | 66 | 1023.6 |
| 20260509092032 | 50 | 71 | 3.0 | 15.0 | 0.00 | 0.00 | 0.00 | 66 | 1023.5 |
| 20260509091545 | 49 | 105 | 4.0 | 15.0 | 0.00 | 0.00 | 0.00 | 67 | 1023.6 |
| 20260509091030 | 49 | 66 | 6.0 | 10.0 | 0.00 | 0.00 | 0.00 | 66 | 1023.5 |
| 20260509090532 | 50 | 65 | 6.0 | 12.0 | 0.00 | 0.00 | 0.00 | 65 | 1023.6 |
| 20260509090044 | 49 | 66 | 6.0 | 12.0 | 0.00 | 0.00 | 0.00 | 66 | 1023.5 |
| 20260509085530 | 49 | 80 | 5.0 | 9.0 | 0.00 | 0.00 | 0.00 | 67 | 1023.6 |
| 20260509085033 | 49 | 68 | 5.0 | 10.0 | 0.00 | 0.00 | 0.00 | 68 | 1023.6 |
| 20260509084538 | 49 | 82 | 4.0 | 10.0 | 0.00 | 0.00 | 0.00 | 68 | 1023.5 |
| 20260509084027 | 49 | 89 | 5.0 | 10.0 | 0.00 | 0.00 | 0.00 | 68 | 1023.6 |
| 20260509083527 | 49 | 94 | 4.0 | 9.0 | 0.00 | 0.00 | 0.00 | 69 | 1023.6 |
| 20260509083045 | 49 | 79 | 5.0 | 9.0 | 0.00 | 0.00 | 0.00 | 69 | 1023.7 |
| 20260509082530 | 49 | 58 | 5.0 | 10.0 | 0.00 | 0.00 | 0.00 | 69 | 1023.7 |
| 20260509082031 | 49 | 77 | 4.0 | 10.0 | 0.00 | 0.00 | 0.00 | 69 | 1023.6 |
| 20260509081544 | 49 | 73 | 3.0 | 11.0 | 0.00 | 0.00 | 0.00 | 70 | 1023.6 |
| 20260509081033 | 48 | 96 | 5.0 | 11.0 | 0.00 | 0.00 | 0.00 | 71 | 1023.5 |
| 20260509080532 | 48 | 75 | 5.0 | 11.0 | 0.00 | 0.00 | 0.00 | 71 | 1023.5 |
| 20260509080038 | 48 | 60 | 4.0 | 10.0 | 0.00 | 0.00 | 0.00 | 71 | 1023.6 |
| 20260509075530 | 48 | 50 | 4.0 | 10.0 | 0.00 | 0.00 | 0.00 | 72 | 1023.5 |
| 20260509075031 | 48 | 90 | 5.0 | 10.0 | 0.00 | 0.00 | 0.00 | 72 | 1023.5 |
| 20260509074543 | 48 | 342 | 2.0 | 7.0 | 0.00 | 0.00 | 0.00 | 73 | 1023.5 |
| 20260509074033 | 48 | 0 | 2.0 | 6.0 | 0.00 | 0.00 | 0.00 | 74 | 1023.4 |
| 20260509073530 | 48 | 41 | 2.0 | 7.0 | 0.00 | 0.00 | 0.00 | 74 | 1023.3 |
| 20260509073044 | 48 | 60 | 2.0 | 7.0 | 0.00 | 0.00 | 0.00 | 75 | 1023.4 |
| 20260509072533 | 48 | 82 | 1.0 | 4.0 | 0.00 | 0.00 | 0.00 | 77 | 1023.5 |
| 20260509072033 | 47 | 353 | 0.0 | 3.0 | 0.00 | 0.00 | 0.00 | 77 | 1023.4 |
| 20260509071541 | 47 | 256 | 1.0 | 3.0 | 0.00 | 0.00 | 0.00 | 77 | 1023.3 |
| 20260509071031 | 47 | 0 | 0.0 | 3.0 | 0.00 | 0.00 | 0.00 | 78 | 1023.1 |
| 20260509070531 | 46 | 295 | 1.0 | 3.0 | 0.00 | 0.00 | 0.00 | 78 | 1023.3 |
| 20260509070037 | 46 | 324 | 1.0 | 2.0 | 0.00 | 0.00 | 0.00 | 78 | 1023.2 |
| 20260509065531 | 46 | 278 | 0.0 | 2.0 | 0.00 | 0.00 | 0.00 | 78 | 1023.1 |
| 20260509065030 | 45 | 278 | 0.0 | 2.0 | 0.00 | 0.00 | 0.00 | 78 | 1023.0 |
| 20260509064554 | 45 | 0 | 0.0 | 2.0 | 0.00 | 0.00 | 0.00 | 78 | 1023.1 |
| 20260509064032 | 45 | 276 | 1.0 | 2.0 | 0.00 | 0.00 | 0.00 | 78 | 1023.2 |
| 20260509063530 | 45 | 285 | 0.0 | 1.0 | 0.00 | 0.00 | 0.00 | 78 | 1023.2 |
| 20260509063041 | 45 | 0 | 0.0 | 1.0 | 0.00 | 0.00 | 0.00 | 79 | 1023.2 |
| 20260509062530 | 45 | 0 | 0.0 | 2.0 | 0.00 | 0.00 | 0.00 | 79 | 1023.1 |
| 20260509062030 | 44 | 0 | 0.0 | 2.0 | 0.00 | 0.00 | 0.00 | 79 | 1023.0 |
| 20260509061551 | 44 | 0 | 0.0 | 1.0 | 0.00 | 0.00 | 0.00 | 79 | 1023.0 |
| 20260509061027 | 44 | 284 | 0.0 | 1.0 | 0.00 | 0.00 | 0.00 | 79 | 1023.0 |
| 20260509060527 | 44 | 254 | 0.0 | 1.0 | 0.00 | 0.00 | 0.00 | 79 | 1023.0 |
| 20260509060038 | 44 | 0 | 0.0 | 1.0 | 0.00 | 0.00 | 0.00 | 79 | 1022.9 |
| 20260509055527 | 44 | 255 | 0.0 | 1.0 | 0.00 | 0.00 | 0.00 | 79 | 1022.8 |
| 20260509055027 | 43 | 0 | 0.0 | 1.0 | 0.00 | 0.00 | 0.00 | 80 | 1022.9 |
| 20260509054539 | 43 | 0 | 0.0 | 1.0 | 0.00 | 0.00 | 0.00 | 80 | 1022.9 |
| 20260509054031 | 43 | 0 | 0.0 | 1.0 | 0.00 | 0.00 | 0.00 | 80 | 1022.8 |
| 20260509053529 | 42 | 0 | 0.0 | 1.0 | 0.00 | 0.00 | 0.00 | 80 | 1022.7 |
| 20260509053037 | 42 | 224 | 0.0 | 1.0 | 0.00 | 0.00 | 0.00 | 80 | 1022.6 |
| 20260509052528 | 42 | 0 | 0.0 | 1.0 | 0.00 | 0.00 | 0.00 | 80 | 1022.5 |
| 20260509052032 | 42 | 0 | 0.0 | 1.0 | 0.00 | 0.00 | 0.00 | 80 | 1022.6 |
| 20260509051535 | 42 | 0 | 0.0 | 1.0 | 0.00 | 0.00 | 0.00 | 80 | 1022.5 |
| 20260509051030 | 42 | 206 | 0.0 | 1.0 | 0.00 | 0.00 | 0.00 | 80 | 1022.5 |
| 20260509050530 | 41 | 0 | 0.0 | 1.0 | 0.00 | 0.00 | 0.00 | 80 | 1022.5 |
| 20260509050042 | 41 | 0 | 0.0 | 0.0 | 0.00 | 0.00 | 0.00 | 80 | 1022.4 |
| 20260509045527 | 41 | 0 | 0.0 | 0.0 | 0.00 | 0.00 | 0.00 | 80 | 1022.3 |
| 20260509045027 | 41 | 0 | 0.0 | 0.0 | 0.00 | 0.00 | 0.00 | 80 | 1022.3 |
| 20260509044539 | 41 | 0 | 0.0 | 0.0 | 0.00 | 0.00 | 0.00 | 80 | 1022.2 |
| 20260509044026 | 41 | 0 | 0.0 | 1.0 | 0.00 | 0.00 | 0.00 | 80 | 1022.3 |
| 20260509043526 | 41 | 0 | 0.0 | 1.0 | 0.00 | 0.00 | 0.00 | 80 | 1022.2 |
| 20260509043035 | 41 | 116 | 0.0 | 1.0 | 0.00 | 0.00 | 0.00 | 81 | 1022.2 |
| 20260509042530 | 41 | 0 | 0.0 | 1.0 | 0.00 | 0.00 | 0.00 | 80 | 1022.0 |
| 20260509042031 | 41 | 123 | 0.0 | 1.0 | 0.00 | 0.00 | 0.00 | 80 | 1021.9 |
| 20260509041535 | 41 | 138 | 0.0 | 1.0 | 0.00 | 0.00 | 0.00 | 80 | 1022.0 |
| 20260509041033 | 41 | 255 | 0.0 | 2.0 | 0.00 | 0.00 | 0.00 | 81 | 1021.9 |
| 20260509040530 | 41 | 0 | 0.0 | 2.0 | 0.00 | 0.00 | 0.00 | 80 | 1021.9 |
| 20260509040042 | 40 | 278 | 0.0 | 2.0 | 0.00 | 0.00 | 0.00 | 81 | 1021.8 |
| 20260509035527 | 40 | 0 | 0.0 | 1.0 | 0.00 | 0.00 | 0.00 | 81 | 1021.9 |
| 20260509035027 | 40 | 0 | 0.0 | 1.0 | 0.00 | 0.00 | 0.00 | 81 | 1021.9 |
| 20260509034542 | 40 | 248 | 0.0 | 1.0 | 0.00 | 0.00 | 0.00 | 81 | 1021.7 |
| 20260509034027 | 40 | 219 | 0.0 | 2.0 | 0.00 | 0.00 | 0.00 | 81 | 1021.8 |
| 20260509033531 | 40 | 297 | 0.0 | 2.0 | 0.00 | 0.00 | 0.00 | 81 | 1021.6 |
| 20260509033038 | 40 | 271 | 0.0 | 1.0 | 0.00 | 0.00 | 0.00 | 81 | 1021.7 |
| 20260509032527 | 39 | 0 | 0.0 | 1.0 | 0.00 | 0.00 | 0.00 | 80 | 1021.8 |
| 20260509032030 | 40 | 0 | 0.0 | 1.0 | 0.00 | 0.00 | 0.00 | 80 | 1021.7 |
| 20260509031552 | 40 | 0 | 0.0 | 1.0 | 0.00 | 0.00 | 0.00 | 80 | 1021.6 |
| 20260509031031 | 40 | 0 | 0.0 | 1.0 | 0.00 | 0.00 | 0.00 | 80 | 1021.7 |
| 20260509030532 | 40 | 0 | 0.0 | 1.0 | 0.00 | 0.00 | 0.00 | 80 | 1021.7 |
| 20260509030042 | 40 | 0 | 0.0 | 1.0 | 0.00 | 0.00 | 0.00 | 80 | 1021.6 |
| 20260509025531 | 40 | 0 | 0.0 | 1.0 | 0.00 | 0.00 | 0.00 | 80 | 1021.7 |
| 20260509025031 | 40 | 259 | 0.0 | 1.0 | 0.00 | 0.00 | 0.00 | 80 | 1021.7 |
| 20260509024542 | 40 | 0 | 0.0 | 0.0 | 0.00 | 0.00 | 0.00 | 79 | 1021.8 |
| 20260509024032 | 40 | 0 | 0.0 | 2.0 | 0.00 | 0.00 | 0.00 | 79 | 1021.7 |
| 20260509023539 | 41 | 0 | 0.0 | 2.0 | 0.00 | 0.00 | 0.00 | 79 | 1021.7 |
| 20260509023040 | 41 | 269 | 0.0 | 2.0 | 0.00 | 0.00 | 0.00 | 79 | 1021.7 |
| 20260509022532 | 41 | 264 | 0.0 | 1.0 | 0.00 | 0.00 | 0.00 | 79 | 1021.7 |
| 20260509022030 | 41 | 281 | 0.0 | 1.0 | 0.00 | 0.00 | 0.00 | 79 | 1021.7 |
| 20260509021538 | 41 | 270 | 0.0 | 2.0 | 0.00 | 0.00 | 0.00 | 79 | 1021.7 |
| 20260509021030 | 41 | 0 | 0.0 | 2.0 | 0.00 | 0.00 | 0.00 | 78 | 1021.7 |
| 20260509020531 | 41 | 0 | 0.0 | 2.0 | 0.00 | 0.00 | 0.00 | 78 | 1021.8 |
| 20260509020045 | 41 | 262 | 0.0 | 2.0 | 0.00 | 0.00 | 0.00 | 78 | 1021.8 |
| 20260509015532 | 41 | 0 | 0.0 | 2.0 | 0.00 | 0.00 | 0.00 | 78 | 1021.7 |
| 20260509015032 | 41 | 243 | 0.0 | 2.0 | 0.00 | 0.00 | 0.00 | 78 | 1021.7 |
| 20260509014542 | 41 | 267 | 0.0 | 2.0 | 0.00 | 0.00 | 0.00 | 78 | 1021.7 |
| 20260509014031 | 41 | 269 | 0.0 | 2.0 | 0.00 | 0.00 | 0.00 | 78 | 1021.8 |
| 20260509013531 | 42 | 259 | 1.0 | 2.0 | 0.00 | 0.00 | 0.00 | 78 | 1021.7 |
| 20260509013042 | 42 | 278 | 0.0 | 2.0 | 0.00 | 0.00 | 0.00 | 78 | 1021.7 |
| 20260509012531 | 42 | 0 | 0.0 | 2.0 | 0.00 | 0.00 | 0.00 | 77 | 1021.7 |
| 20260509012031 | 42 | 255 | 0.0 | 2.0 | 0.00 | 0.00 | 0.00 | 77 | 1021.7 |
| 20260509011538 | 42 | 270 | 0.0 | 1.0 | 0.00 | 0.00 | 0.00 | 77 | 1021.6 |
| 20260509011031 | 42 | 0 | 0.0 | 2.0 | 0.00 | 0.00 | 0.00 | 77 | 1021.6 |
| 20260509010532 | 42 | 281 | 0.0 | 2.0 | 0.00 | 0.00 | 0.00 | 77 | 1021.5 |
| 20260509010046 | 42 | 242 | 0.0 | 2.0 | 0.00 | 0.00 | 0.00 | 77 | 1021.5 |
| 20260509005533 | 42 | 256 | 0.0 | 3.0 | 0.00 | 0.01 | 0.00 | 76 | 1021.5 |
| 20260509005033 | 42 | 233 | 1.0 | 3.0 | 0.00 | 0.01 | 0.00 | 76 | 1021.4 |
| 20260509004536 | 43 | 246 | 0.0 | 3.0 | 0.00 | 0.01 | 0.00 | 76 | 1021.4 |
| 20260509004032 | 43 | 269 | 0.0 | 2.0 | 0.00 | 0.01 | 0.00 | 76 | 1021.3 |
| 20260509003532 | 43 | 283 | 1.0 | 2.0 | 0.00 | 0.01 | 0.00 | 76 | 1021.3 |
| 20260509003047 | 43 | 275 | 1.0 | 2.0 | 0.00 | 0.01 | 0.00 | 76 | 1021.3 |
| 20260509002531 | 43 | 242 | 0.0 | 2.0 | 0.00 | 0.01 | 0.00 | 76 | 1021.3 |
| 20260509002031 | 43 | 0 | 0.0 | 2.0 | 0.00 | 0.01 | 0.00 | 76 | 1021.3 |
| 20260509001542 | 43 | 302 | 0.0 | 2.0 | 0.00 | 0.01 | 0.00 | 76 | 1021.3 |
| 20260509001032 | 44 | 213 | 0.0 | 1.0 | 0.00 | 0.01 | 0.00 | 76 | 1021.2 |
| 20260509000531 | 44 | 253 | 0.0 | 3.0 | 0.00 | 0.01 | 0.00 | 76 | 1021.2 |
| 20260509000043 | 44 | 0 | 1.0 | 3.0 | 0.00 | 0.01 | 0.00 | 76 | 1021.3 |
| 20260508235531 | 44 | 240 | 0.0 | 2.0 | 0.00 | 0.07 | 0.00 | 76 | 1021.2 |
| 20260508235031 | 44 | 0 | 0.0 | 2.0 | 0.00 | 0.07 | 0.00 | 75 | 1021.3 |
| 20260508234549 | 44 | 0 | 0.0 | 3.0 | 0.00 | 0.07 | 0.00 | 75 | 1021.3 |
| 20260508234031 | 44 | 278 | 1.0 | 4.0 | 0.00 | 0.07 | 0.00 | 75 | 1021.3 |
| 20260508233531 | 45 | 253 | 1.0 | 4.0 | 0.00 | 0.07 | 0.00 | 75 | 1021.2 |
| 20260508233036 | 45 | 286 | 1.0 | 4.0 | 0.00 | 0.07 | 0.00 | 75 | 1021.3 |
| 20260508232531 | 45 | 268 | 1.0 | 4.0 | 0.00 | 0.07 | 0.00 | 75 | 1021.3 |